Weather History for KCPK - August, 2013

Change the Weather History Date:

Wednesday, August 28, 2013

  Actual Average (KORF) Record (KORF)
Temperature  
Mean Temperature 80 °F 77 °F  
Max Temperature 86 °F 84 °F 98 °F (2006)
Min Temperature 73 °F 70 °F 57 °F (1963)
Degree Days  
Heating Degree Days 0 0  
Month to date heating degree days 0  
Since 1 June heating degree days 6  
Since 1 July heating degree days 0  
Cooling Degree Days 14 12  
Month to date cooling degree days 367  
Year to date cooling degree days 1302  
Since 1 June cooling degree days 1136  
Growing Degree Days 30 (Base 50)    
Moisture  
Dew Point 73 °F    
Average Humidity 85    
Maximum Humidity 94    
Minimum Humidity 66    
Precipitation  
Precipitation 0.15 in 0.17 in 3.00 in (1998)
Month to date precipitation 5.07  
Year to date precipitation 31.49  
Snow  
Snow 0.00 in 0.00 in 0.00 in (2002)
Month to date snowfall 0.0  
Since 1 July snowfall 0.0  
Snow Depth -    
Sea Level Pressure  
Sea Level Pressure 29.91 in    
Wind  
Wind Speed 2 mph (SSW)    
Max Wind Speed 7 mph    
Max Gust Speed -    
Visibility 5 miles    
Events Rain , Thunderstorm    
T = Trace of Precipitation, MM = Missing Value Source: NWS Daily Summary

Daily Weather History Graph

Daily Weather History Graph

Search for Another Location

Airport or City:

Trip Planner

Search our weather history database for the weather conditions in past years. The results will help you decide how hot, cold, wet, or windy it might be!

Date:

Astronomy

Aug. 28, 2013 Rise Set
Actual Time 6:33 AM EDT 7:38 PM EDT
Civil Twilight 6:06 AM EDT 8:05 PM EDT
Nautical Twilight 5:35 AM EDT 8:36 PM EDT
Astronomical Twilight 5:02 AM EDT 9:09 PM EDT
Moon No Moon Rise 2:09 PM EDT (8/28)
Length of Visible Light 13h 58m
Length of Day
13h 05m
Waning Gibbous, 47% of the Moon is Illuminated
Aug 28
Waning Gibbous
Sep 5
New
Sep 12
First Quarter
Sep 19
Full
Sep 26
Last Quarter

Hourly Weather History & Observations

Time (EDT) Temp. Heat Index Dew Point Humidity Pressure Visibility Wind Dir Wind Speed Gust Speed Precip Events Conditions
12:15 AM 73.4 °F - 71.6 °F 94% 29.95 in 5.0 mi South 3.5 mph - N/A   Scattered Clouds
12:35 AM 73.4 °F - 71.6 °F 94% 29.95 in 5.0 mi South 4.6 mph - N/A   Mostly Cloudy
12:55 AM 73.4 °F - 71.6 °F 94% 29.95 in 7.0 mi South 6.9 mph - N/A   Mostly Cloudy
1:15 AM 73.4 °F - 69.8 °F 88% 29.95 in 7.0 mi South 4.6 mph - N/A   Scattered Clouds
1:35 AM 73.4 °F - 69.8 °F 88% 29.94 in 5.0 mi SSW 4.6 mph - N/A   Scattered Clouds
1:55 AM 73.4 °F - 69.8 °F 88% 29.94 in 5.0 mi South 5.8 mph - N/A   Scattered Clouds
2:15 AM 73.4 °F - 71.6 °F 94% 29.94 in 7.0 mi Calm Calm - N/A   Mostly Cloudy
2:35 AM 73.4 °F - 69.8 °F 88% 29.93 in 7.0 mi SSW 4.6 mph - N/A   Scattered Clouds
2:55 AM 73.4 °F - 71.6 °F 94% 29.93 in 5.0 mi SSW 3.5 mph - N/A   Clear
3:15 AM 73.4 °F - 69.8 °F 88% 29.92 in 7.0 mi Calm Calm - N/A   Clear
3:35 AM 73.4 °F - 69.8 °F 88% 29.92 in 5.0 mi SSW 3.5 mph - N/A   Clear
3:55 AM 73.4 °F - 69.8 °F 88% 29.91 in 7.0 mi SSW 4.6 mph - N/A   Clear
4:15 AM 73.4 °F - 69.8 °F 88% 29.91 in 7.0 mi SSW 4.6 mph - N/A   Clear
4:35 AM 73.4 °F - 69.8 °F 88% 29.91 in 7.0 mi Calm Calm - N/A   Clear
4:55 AM 73.4 °F - 69.8 °F 88% 29.90 in 7.0 mi Calm Calm - N/A   Clear
5:15 AM 73.4 °F - 69.8 °F 88% 29.91 in 7.0 mi Calm Calm - N/A   Scattered Clouds
5:35 AM 73.4 °F - 69.8 °F 88% 29.92 in 7.0 mi Calm Calm - N/A   Mostly Cloudy
5:55 AM 73.4 °F - 71.6 °F 94% 29.92 in 7.0 mi Calm Calm - N/A Rain Light Rain
6:15 AM 73.4 °F - 71.6 °F 94% 29.92 in 5.0 mi Calm Calm - N/A Rain Light Rain
6:35 AM 73.4 °F - 71.6 °F 94% 29.92 in 4.0 mi Calm Calm - N/A Rain Light Rain
6:55 AM 73.4 °F - 71.6 °F 94% 29.93 in 3.0 mi Calm Calm - N/A   Mostly Cloudy
7:15 AM 73.4 °F - 71.6 °F 94% 29.93 in 3.0 mi South 3.5 mph - N/A   Scattered Clouds
7:35 AM 73.4 °F - 71.6 °F 94% 29.93 in 2.0 mi Calm Calm - N/A   Overcast
7:55 AM 73.4 °F - 71.6 °F 94% 29.94 in 3.0 mi Calm Calm - N/A   Mostly Cloudy
8:15 AM 73.4 °F - 71.6 °F 94% 29.94 in 4.0 mi Calm Calm - N/A   Scattered Clouds
8:35 AM 73.4 °F - 71.6 °F 94% 29.94 in 4.0 mi Calm Calm - N/A   Clear
8:55 AM 75.2 °F - 71.6 °F 89% 29.94 in 4.0 mi Calm Calm - N/A   Clear
9:15 AM 75.2 °F - 71.6 °F 89% 29.94 in 4.0 mi Calm Calm - N/A   Clear
9:35 AM 78.8 °F - 73.4 °F 83% 29.94 in 5.0 mi Calm Calm - N/A   Haze
9:55 AM 78.8 °F - 73.4 °F 83% 29.94 in 5.0 mi Calm Calm - N/A   Haze
10:15 AM 80.6 °F 85.4 °F 73.4 °F 79% 29.94 in 5.0 mi Calm Calm - N/A   Haze
10:35 AM 80.6 °F 85.4 °F 73.4 °F 79% 29.94 in 5.0 mi Calm Calm - N/A   Haze
10:55 AM 80.6 °F 85.4 °F 73.4 °F 79% 29.95 in 5.0 mi Calm Calm - N/A   Haze
11:15 AM 80.6 °F 86.2 °F 75.2 °F 84% 29.95 in 5.0 mi Calm Calm - N/A   Haze
11:35 AM 82.4 °F 89.5 °F 75.2 °F 79% 29.95 in 5.0 mi Calm Calm - N/A   Haze
11:55 AM 82.4 °F 89.5 °F 75.2 °F 79% 29.94 in 5.0 mi Calm Calm - N/A   Haze
12:15 PM 82.4 °F 88.2 °F 73.4 °F 74% 29.93 in 5.0 mi Calm Calm - N/A   Haze
12:35 PM 82.4 °F 89.5 °F 75.2 °F 79% 29.93 in 5.0 mi Calm Calm - N/A   Haze
12:55 PM 82.4 °F 89.5 °F 75.2 °F 79% 29.93 in 5.0 mi Calm Calm - N/A   Haze
1:15 PM 82.4 °F 89.5 °F 75.2 °F 79% 29.92 in 5.0 mi Calm Calm - N/A   Haze
1:35 PM 84.2 °F 92.3 °F 75.2 °F 74% 29.92 in 5.0 mi Calm Calm - N/A   Haze
1:55 PM 84.2 °F 90.9 °F 73.4 °F 70% 29.91 in 5.0 mi Calm Calm - N/A   Haze
2:15 PM 84.2 °F 92.3 °F 75.2 °F 74% 29.91 in 5.0 mi Calm Calm - N/A   Haze
2:35 PM 84.2 °F 92.3 °F 75.2 °F 74% 29.90 in 5.0 mi Calm Calm - N/A   Haze
2:55 PM 84.2 °F 92.3 °F 75.2 °F 74% 29.89 in 5.0 mi Calm Calm - N/A   Haze
3:15 PM 86.0 °F 95.1 °F 75.2 °F 70% 29.89 in 5.0 mi Calm Calm - N/A   Haze
3:35 PM 86.0 °F 95.1 °F 75.2 °F 70% 29.89 in 5.0 mi Calm Calm - N/A   Haze
3:55 PM 84.2 °F 89.6 °F 71.6 °F 66% 29.88 in 7.0 mi Calm Calm - N/A   Scattered Clouds
4:15 PM 84.2 °F 89.6 °F 71.6 °F 66% 29.88 in 7.0 mi Calm Calm - N/A   Clear
4:35 PM 84.2 °F 90.9 °F 73.4 °F 70% 29.88 in 7.0 mi Calm Calm - N/A   Clear
4:55 PM 84.2 °F 92.3 °F 75.2 °F 74% 29.88 in 5.0 mi Calm Calm - N/A   Haze
5:15 PM 82.4 °F 89.5 °F 75.2 °F 79% 29.88 in 5.0 mi Calm Calm - N/A   Haze
5:35 PM 82.4 °F 89.5 °F 75.2 °F 79% 29.88 in 5.0 mi Calm Calm - N/A   Haze
5:55 PM 82.4 °F 89.5 °F 75.2 °F 79% 29.88 in 5.0 mi Calm Calm - N/A   Haze
6:15 PM 82.4 °F 89.5 °F 75.2 °F 79% 29.88 in 5.0 mi Calm Calm - N/A   Haze
6:35 PM 82.4 °F 89.5 °F 75.2 °F 79% 29.89 in 4.0 mi Calm Calm - N/A   Haze
6:55 PM 80.6 °F 86.2 °F 75.2 °F 84% 29.89 in 4.0 mi Calm Calm - N/A Rain Light Rain
7:15 PM 80.6 °F 86.2 °F 75.2 °F 84% 29.89 in 7.0 mi Calm Calm - N/A Rain Light Rain
7:35 PM 78.8 °F - 75.2 °F 89% 29.89 in 4.0 mi Calm Calm - N/A   Overcast
7:55 PM 78.8 °F - 75.2 °F 89% 29.89 in 4.0 mi Calm Calm - N/A   Overcast
8:15 PM 77.0 °F - 75.2 °F 94% 29.88 in 3.0 mi Calm Calm - N/A   Overcast
8:35 PM 77.0 °F - 75.2 °F 94% 29.89 in 3.0 mi Calm Calm - N/A   Mostly Cloudy
8:55 PM 77.0 °F - 75.2 °F 94% 29.88 in 4.0 mi Calm Calm - N/A   Scattered Clouds
9:15 PM 77.0 °F - 75.2 °F 94% 29.88 in 4.0 mi Calm Calm - N/A   Mostly Cloudy
9:35 PM 77.0 °F - 73.4 °F 89% 29.88 in 4.0 mi Calm Calm - N/A   Overcast
9:55 PM 77.0 °F - 73.4 °F 89% 29.88 in 5.0 mi Calm Calm - N/A   Overcast
10:15 PM 77.0 °F - 73.4 °F 89% 29.88 in 5.0 mi Calm Calm - N/A Rain Light Rain
10:35 PM 75.2 °F - 73.4 °F 94% 29.89 in 4.0 mi Calm Calm - 0.04 in Rain Rain
10:55 PM 75.2 °F - 73.4 °F 94% 29.88 in 2.5 mi Calm Calm - 0.06 in Rain , Thunderstorm Heavy Thunderstorms and Rain
11:15 PM 75.2 °F - 73.4 °F 94% 29.86 in 4.0 mi Calm Calm - 0.09 in Rain Rain
11:35 PM 75.2 °F - 73.4 °F 94% 29.85 in 5.0 mi Calm Calm - 0.09 in Rain , Thunderstorm Light Thunderstorms and Rain
11:55 PM 75.2 °F - 71.6 °F 89% 29.85 in 5.0 mi Calm Calm - 0.01 in Rain , Thunderstorm Light Thunderstorms and Rain